Flag for Poland Weather past 2 weeks in Tychy, Poland

Now
37 °F

Partly sunny.


Feels Like: 30 °F
Forecast: 33 / 56 °F
Wind: 10 mph from Northwest

Location: Katowice Airport


UV Index: 3 (Moderate)

Visibility: N/A


Pressure: 30.24 "Hg

Humidity: 87%

Dew point: 34 °F

Location of TychyLocation

Historic Weather in Tychy

°F

Tychy temperature yesterday

Maximum temperature yesterday: 46 °F (at 4:30 PM)
Minimum temperature yesterday: 37 °F (at 12:00 AM)
Average temperature yesterday: 39 °F

Past Weeks' High & Low Weather Summary

 TemperatureHumidityPressure
High70 °F (Apr 8, 1:30 PM)100% (Apr 10, 5:00 AM)30.24 "Hg (Apr 10, 5:00 AM)
Low28 °F (Apr 13, 5:30 AM)28% (Apr 2, 3:00 PM)29.68 "Hg (Apr 3, 2:00 PM)
Average47 °F71%29.94 "Hg
* Reported Apr 1 10:00 AM — Apr 16 10:00 AM, Tychy, Weather by CustomWeather, © 2014

Note: Actual official high and low records may vary slightly from our data, if they occured in-between our weather recording intervals... More about our weather records

Advertising

Historic Weather Conditions — Data for Previous 24 hours

 ConditionsComfort  
Time TempWeatherWind HumidityBarometerVisibility
10:00 AM
Apr 16
37 °FPartly sunny.13 mph87%30.24 "HgN/A
9:30 AM37 °FPartly sunny.13 mph87%30.24 "HgN/A
9:00 AM37 °FBroken clouds.13 mph87%30.21 "HgN/A
8:30 AM37 °FPartly sunny.13 mph87%30.21 "HgN/A
8:00 AM37 °FBroken clouds.12 mph87%30.18 "HgN/A
7:30 AM37 °FBroken clouds.14 mph87%30.18 "HgN/A
7:00 AM37 °FPartly sunny.12 mph93%30.18 "HgN/A
6:30 AM37 °FPartly cloudy.12 mph93%30.15 "HgN/A
6:00 AM39 °FPassing clouds.14 mph93%30.15 "HgN/A
5:30 AM39 °FPassing clouds.12 mph93%30.12 "HgN/A
5:00 AM39 °FPassing clouds.12 mph93%30.12 "HgN/A
4:30 AM39 °FPassing clouds.12 mph93%30.12 "Hg5 mi
4:00 AM39 °FPassing clouds.9 mph93%30.09 "Hg5 mi
3:30 AM39 °FSprinkles. Partly cloudy.12 mph93%30.09 "HgN/A
3:00 AM39 °FPartly cloudy.14 mph100%30.09 "HgN/A
1:00 AM39 °FPartly cloudy.9 mph100%30.07 "HgN/A
12:30 AM39 °FPartly cloudy.7 mph100%30.07 "HgN/A
12:00 AM39 °FPartly cloudy.7 mph100%30.07 "HgN/A
11:00 PM
Apr 15
39 °FPassing clouds.7 mph100%30.04 "HgN/A
10:30 PM39 °FPartly cloudy.9 mph93%30.04 "HgN/A
10:00 PM39 °FPassing clouds.7 mph93%30.04 "HgN/A
9:30 PM39 °FPassing clouds.5 mph93%30.04 "HgN/A
9:00 PM39 °FSprinkles. Passing clouds.7 mph93%30.01 "HgN/A
8:30 PM39 °FSprinkles. Broken clouds.8 mph100%30.01 "HgN/A
8:00 PM41 °FSprinkles. Broken clouds.7 mph93%29.98 "HgN/A
7:30 PM39 °FBroken clouds.6 mph100%29.98 "HgN/A
7:00 PM39 °FScattered clouds.7 mph100%29.98 "HgN/A
6:30 PM39 °FScattered clouds.12 mph100%29.95 "HgN/A
6:00 PM37 °FPartly sunny.10 mph93%29.95 "HgN/A
5:30 PM39 °FSprinkles. Partly sunny.5 mph87%29.95 "HgN/A
5:00 PM39 °FRain showers. Broken clouds.9 mph87%29.95 "Hg2 mi
4:30 PM46 °FScattered clouds.15 mph82%29.92 "HgN/A
4:00 PM45 °FScattered clouds.13 mph81%29.92 "HgN/A
3:30 PM45 °FPartly sunny.13 mph87%29.92 "HgN/A
3:00 PM43 °FBroken clouds.12 mph93%29.92 "HgN/A
2:30 PM39 °FLight rain. Fog.10 mph100%29.92 "Hg3 mi
2:00 PM39 °FLight rain. Fog.13 mph100%29.92 "Hg2 mi
1:30 PM37 °FBroken clouds.10 mph100%29.92 "Hg5 mi
1:00 PM37 °FSprinkles. Broken clouds.13 mph93%29.92 "HgN/A
12:30 PM37 °FSprinkles. Broken clouds.14 mph93%29.92 "HgN/A
12:00 PM39 °FSprinkles. Broken clouds.17 mph93%29.89 "HgN/A
11:30 AM39 °FSprinkles. Broken clouds.16 mph93%29.89 "HgN/A
11:00 AM39 °FLight rain. Broken clouds.16 mph93%29.89 "HgN/A
Weather by CustomWeather, © 2014

See weather overview